GLD166 SIRI-SJIR

Flight info

Callsign GLD166
Flight time 0h 57m
Altitude 6500
Route 1353S03917W 1343S03936W 1336S03946W 1327S04014W 1322S04030W SJIR
Aircraft C182/M-SDFGIRY/S

Departure

Time 2026-04-14 13:12
Airport Barra Grande Airport (SIRI)

Arrival

Time 2026-04-14 14:10
Airport Engenheiro Joaquim Martins Airport (SJIR)
Time Latitude Longitude Altitude Speed Heading
2026-04-14 13:07 -13.90626 -38.93401 25 ft 0 kts 184°
2026-04-14 13:07 -13.90635 -38.93402 25 ft 5 kts 184°
2026-04-14 13:07 -13.90652 -38.93403 25 ft 0 kts 184°
2026-04-14 13:11 -13.90641 -38.93412 27 ft 7 kts 357°
2026-04-14 13:11 -13.90600 -38.93399 25 ft 1 kts 47°
2026-04-14 13:11 -13.90578 -38.93395 26 ft 11 kts 289°
2026-04-14 13:11 -13.90582 -38.93645 33 ft 57 kts 268°
2026-04-14 13:12 -13.90618 -38.94186 102 ft 83 kts 261°
2026-04-14 13:12 -13.90616 -38.94816 307 ft 93 kts 254°
2026-04-14 13:12 -13.91104 -38.95230 568 ft 100 kts 186°
2026-04-14 13:12 -13.91715 -38.95204 1076 ft 84 kts 169°
2026-04-14 13:13 -13.92328 -38.95238 1289 ft 106 kts 208°
2026-04-14 13:13 -13.92581 -38.96040 1397 ft 134 kts 268°
2026-04-14 13:13 -13.92543 -38.97025 1562 ft 141 kts 265°
2026-04-14 13:13 -13.92511 -38.98058 1727 ft 147 kts 266°
2026-04-14 13:14 -13.92485 -38.99109 1880 ft 146 kts 266°
2026-04-14 13:14 -13.92466 -39.00159 2029 ft 147 kts 266°
2026-04-14 13:14 -13.92439 -39.01208 2219 ft 145 kts 266°
2026-04-14 13:14 -13.92363 -39.02246 2418 ft 147 kts 271°
2026-04-14 13:15 -13.92248 -39.03267 2608 ft 145 kts 271°
2026-04-14 13:15 -13.92132 -39.04296 2798 ft 145 kts 271°
2026-04-14 13:15 -13.92024 -39.05327 2992 ft 145 kts 271°
2026-04-14 13:15 -13.91913 -39.06356 3184 ft 144 kts 272°
2026-04-14 13:16 -13.91809 -39.07378 3383 ft 143 kts 272°
2026-04-14 13:16 -13.91707 -39.08398 3574 ft 143 kts 271°
2026-04-14 13:16 -13.91612 -39.09421 3765 ft 144 kts 271°
2026-04-14 13:16 -13.91516 -39.10450 3957 ft 145 kts 271°
2026-04-14 13:17 -13.91414 -39.11482 4151 ft 145 kts 271°
2026-04-14 13:17 -13.91319 -39.12513 4350 ft 144 kts 271°
2026-04-14 13:17 -13.91227 -39.13547 4546 ft 145 kts 271°
2026-04-14 13:17 -13.91145 -39.14574 4746 ft 143 kts 270°
2026-04-14 13:18 -13.91058 -39.15592 4936 ft 142 kts 270°
2026-04-14 13:18 -13.90970 -39.16601 5128 ft 141 kts 271°
2026-04-14 13:18 -13.90884 -39.17608 5315 ft 141 kts 270°
2026-04-14 13:18 -13.90801 -39.18595 5507 ft 139 kts 271°
2026-04-14 13:19 -13.90721 -39.19585 5700 ft 139 kts 270°
2026-04-14 13:19 -13.90641 -39.20575 5897 ft 139 kts 271°
2026-04-14 13:19 -13.90559 -39.21568 6100 ft 139 kts 271°
2026-04-14 13:19 -13.90488 -39.22560 6277 ft 140 kts 270°
2026-04-14 13:20 -13.90411 -39.23610 6291 ft 153 kts 271°
2026-04-14 13:20 -13.90331 -39.24731 6301 ft 159 kts 271°
2026-04-14 13:20 -13.90255 -39.25880 6308 ft 162 kts 270°
2026-04-14 13:20 -13.90061 -39.27030 6291 ft 168 kts 290°
2026-04-14 13:21 -13.89537 -39.28109 6295 ft 168 kts 295°
2026-04-14 13:21 -13.89026 -39.29183 6294 ft 166 kts 294°
2026-04-14 13:21 -13.88512 -39.30246 6292 ft 165 kts 295°
2026-04-14 13:21 -13.87998 -39.31306 6293 ft 167 kts 295°
2026-04-14 13:22 -13.87485 -39.32382 6299 ft 168 kts 295°
2026-04-14 13:22 -13.86975 -39.33453 6302 ft 170 kts 294°
2026-04-14 13:22 -13.86444 -39.34539 6300 ft 169 kts 295°
2026-04-14 13:22 -13.85913 -39.35615 6301 ft 168 kts 295°
2026-04-14 13:23 -13.85388 -39.36702 6302 ft 170 kts 294°
2026-04-14 13:23 -13.84861 -39.37797 6304 ft 172 kts 295°
2026-04-14 13:23 -13.84329 -39.38897 6301 ft 170 kts 295°
2026-04-14 13:23 -13.83802 -39.39986 6300 ft 170 kts 295°
2026-04-14 13:24 -13.83281 -39.41072 6302 ft 169 kts 295°
2026-04-14 13:24 -13.82238 -39.43265 6299 ft 171 kts 294°
2026-04-14 13:24 -13.81715 -39.44361 6308 ft 171 kts 295°
2026-04-14 13:25 -13.81194 -39.45455 6306 ft 170 kts 294°
2026-04-14 13:25 -13.80673 -39.46557 6306 ft 171 kts 294°
2026-04-14 13:26 -13.79101 -39.49859 6308 ft 171 kts 294°
2026-04-14 13:26 -13.78583 -39.50957 6307 ft 170 kts 294°
2026-04-14 13:26 -13.78069 -39.52056 6311 ft 171 kts 294°
2026-04-14 13:26 -13.77550 -39.53165 6316 ft 173 kts 294°
2026-04-14 13:27 -13.77020 -39.54291 6320 ft 176 kts 294°
2026-04-14 13:27 -13.76487 -39.55432 6324 ft 177 kts 294°
2026-04-14 13:27 -13.75954 -39.56572 6322 ft 176 kts 294°
2026-04-14 13:27 -13.75438 -39.57686 6319 ft 174 kts 294°
2026-04-14 13:28 -13.74916 -39.58803 6321 ft 173 kts 294°
2026-04-14 13:28 -13.74399 -39.59916 6315 ft 171 kts 294°
2026-04-14 13:28 -13.73887 -39.61018 6316 ft 170 kts 294°
2026-04-14 13:28 -13.73370 -39.62111 6315 ft 170 kts 294°
2026-04-14 13:29 -13.72855 -39.63198 6314 ft 169 kts 294°
2026-04-14 13:29 -13.72346 -39.64290 6309 ft 169 kts 294°
2026-04-14 13:29 -13.71840 -39.65379 6308 ft 169 kts 294°
2026-04-14 13:29 -13.71336 -39.66466 6317 ft 168 kts 294°
2026-04-14 13:30 -13.70829 -39.67550 6317 ft 168 kts 294°
2026-04-14 13:30 -13.70322 -39.68633 6312 ft 169 kts 294°
2026-04-14 13:30 -13.69813 -39.69725 6315 ft 170 kts 294°
2026-04-14 13:30 -13.69306 -39.70824 6313 ft 171 kts 294°
2026-04-14 13:31 -13.68794 -39.71928 6317 ft 171 kts 294°
2026-04-14 13:31 -13.68278 -39.73038 6307 ft 171 kts 294°
2026-04-14 13:31 -13.67771 -39.74139 6313 ft 170 kts 294°
2026-04-14 13:31 -13.67263 -39.75236 6311 ft 170 kts 294°
2026-04-14 13:32 -13.66767 -39.76322 6316 ft 171 kts 294°
2026-04-14 13:32 -13.66263 -39.77435 6323 ft 172 kts 294°
2026-04-14 13:32 -13.65756 -39.78546 6298 ft 169 kts 293°
2026-04-14 13:32 -13.65257 -39.79608 6308 ft 165 kts 294°
2026-04-14 13:33 -13.64757 -39.80687 6310 ft 168 kts 294°
2026-04-14 13:33 -13.64254 -39.81779 6308 ft 170 kts 294°
2026-04-14 13:33 -13.63757 -39.82872 6307 ft 168 kts 294°
2026-04-14 13:33 -13.63261 -39.83956 6299 ft 166 kts 294°
2026-04-14 13:34 -13.62446 -39.85741 6306 ft 168 kts 294°
2026-04-14 13:34 -13.61953 -39.86837 6307 ft 170 kts 293°
2026-04-14 13:34 -13.61453 -39.87940 6302 ft 170 kts 294°
2026-04-14 13:35 -13.60785 -39.89406 6304 ft 172 kts 294°
2026-04-14 13:35 -13.60282 -39.90514 6313 ft 171 kts 294°
2026-04-14 13:35 -13.59949 -39.91265 6312 ft 171 kts 293°
2026-04-14 13:35 -13.59453 -39.92381 6308 ft 171 kts 294°
2026-04-14 13:36 -13.58968 -39.93479 6311 ft 171 kts 293°
2026-04-14 13:36 -13.58470 -39.94587 6311 ft 171 kts 294°
2026-04-14 13:36 -13.57971 -39.95693 6308 ft 170 kts 294°
2026-04-14 13:36 -13.57479 -39.96802 6308 ft 171 kts 293°
2026-04-14 13:37 -13.56987 -39.97913 6314 ft 171 kts 294°
2026-04-14 13:37 -13.56498 -39.99027 6313 ft 171 kts 293°
2026-04-14 13:37 -13.56012 -40.00146 6311 ft 171 kts 293°
2026-04-14 13:37 -13.55516 -40.01258 6315 ft 171 kts 294°
2026-04-14 13:38 -13.55025 -40.02376 6310 ft 171 kts 294°
2026-04-14 13:38 -13.54555 -40.03490 6316 ft 169 kts 293°
2026-04-14 13:38 -13.54082 -40.04598 6313 ft 170 kts 293°
2026-04-14 13:38 -13.53598 -40.05706 6318 ft 170 kts 294°
2026-04-14 13:39 -13.53116 -40.06821 6316 ft 171 kts 293°
2026-04-14 13:39 -13.52632 -40.07942 6315 ft 171 kts 293°
2026-04-14 13:39 -13.52148 -40.09066 6315 ft 173 kts 293°
2026-04-14 13:39 -13.51663 -40.10193 6316 ft 172 kts 293°
2026-04-14 13:40 -13.51182 -40.11311 6317 ft 171 kts 293°
2026-04-14 13:40 -13.50701 -40.12428 6319 ft 171 kts 293°
2026-04-14 13:40 -13.50230 -40.13539 6320 ft 172 kts 293°
2026-04-14 13:40 -13.49747 -40.14664 6314 ft 172 kts 293°
2026-04-14 13:41 -13.49257 -40.15785 6316 ft 172 kts 293°
2026-04-14 13:41 -13.48779 -40.16919 6319 ft 173 kts 293°
2026-04-14 13:41 -13.48309 -40.18052 6318 ft 171 kts 292°
2026-04-14 13:41 -13.47828 -40.19161 6316 ft 169 kts 293°
2026-04-14 13:42 -13.47355 -40.20269 6317 ft 168 kts 292°
2026-04-14 13:42 -13.46891 -40.21371 6310 ft 168 kts 293°
2026-04-14 13:42 -13.46427 -40.22468 6309 ft 166 kts 293°
2026-04-14 13:42 -13.45956 -40.23558 6315 ft 168 kts 293°
2026-04-14 13:43 -13.45484 -40.24663 6310 ft 170 kts 293°
2026-04-14 13:43 -13.45012 -40.25777 6314 ft 171 kts 292°
2026-04-14 13:43 -13.44536 -40.26876 6311 ft 170 kts 294°
2026-04-14 13:43 -13.44057 -40.28012 6308 ft 172 kts 292°
2026-04-14 13:44 -13.43590 -40.29126 6312 ft 172 kts 293°
2026-04-14 13:44 -13.43115 -40.30267 6307 ft 171 kts 293°
2026-04-14 13:44 -13.42655 -40.31375 6312 ft 171 kts 292°
2026-04-14 13:44 -13.42186 -40.32494 6314 ft 170 kts 293°
2026-04-14 13:45 -13.41715 -40.33613 6312 ft 171 kts 293°
2026-04-14 13:45 -13.41242 -40.34738 6313 ft 173 kts 293°
2026-04-14 13:45 -13.40765 -40.35867 6308 ft 171 kts 293°
2026-04-14 13:45 -13.40291 -40.36982 6303 ft 170 kts 293°
2026-04-14 13:46 -13.39814 -40.38100 6305 ft 171 kts 293°
2026-04-14 13:46 -13.39344 -40.39228 6302 ft 170 kts 292°
2026-04-14 13:46 -13.38877 -40.40345 6276 ft 171 kts 292°
2026-04-14 13:46 -13.38406 -40.41470 6224 ft 172 kts 291°
2026-04-14 13:47 -13.37920 -40.42597 6176 ft 174 kts 293°
2026-04-14 13:47 -13.37448 -40.43725 6133 ft 175 kts 292°
2026-04-14 13:47 -13.36972 -40.44879 6086 ft 176 kts 292°
2026-04-14 13:47 -13.36484 -40.46035 6038 ft 177 kts 293°
2026-04-14 13:48 -13.36000 -40.47192 5977 ft 175 kts 292°
2026-04-14 13:48 -13.35515 -40.48332 5937 ft 174 kts 293°
2026-04-14 13:48 -13.35067 -40.49495 5874 ft 175 kts 283°
2026-04-14 13:48 -13.34965 -40.50741 5818 ft 176 kts 270°
2026-04-14 13:49 -13.34916 -40.51993 5766 ft 174 kts 270°
2026-04-14 13:49 -13.34870 -40.53231 5763 ft 172 kts 270°
2026-04-14 13:49 -13.34823 -40.54464 5759 ft 173 kts 270°
2026-04-14 13:49 -13.34777 -40.55690 5759 ft 170 kts 270°
2026-04-14 13:50 -13.34732 -40.56905 5751 ft 170 kts 270°
2026-04-14 13:50 -13.34689 -40.58107 5759 ft 171 kts 271°
2026-04-14 13:50 -13.34650 -40.59331 5752 ft 171 kts 271°
2026-04-14 13:50 -13.34610 -40.60545 5760 ft 171 kts 270°
2026-04-14 13:51 -13.34572 -40.61764 5755 ft 170 kts 270°
2026-04-14 13:51 -13.34530 -40.62977 5755 ft 170 kts 271°
2026-04-14 13:51 -13.34494 -40.64192 5752 ft 169 kts 270°
2026-04-14 13:51 -13.34455 -40.65387 5756 ft 167 kts 270°
2026-04-14 13:52 -13.34416 -40.66590 5751 ft 168 kts 270°
2026-04-14 13:52 -13.34378 -40.67786 5750 ft 168 kts 270°
2026-04-14 13:52 -13.34342 -40.68982 5755 ft 168 kts 270°
2026-04-14 13:52 -13.34307 -40.70179 5747 ft 167 kts 270°
2026-04-14 13:53 -13.34274 -40.71368 5751 ft 167 kts 270°
2026-04-14 13:53 -13.34242 -40.72562 5748 ft 168 kts 270°
2026-04-14 13:53 -13.34215 -40.73745 5750 ft 168 kts 270°
2026-04-14 13:53 -13.34182 -40.74945 5749 ft 168 kts 270°
2026-04-14 13:54 -13.34156 -40.76146 5752 ft 168 kts 270°
2026-04-14 13:54 -13.34129 -40.77345 5750 ft 167 kts 270°
2026-04-14 13:54 -13.34103 -40.78542 5750 ft 167 kts 270°
2026-04-14 13:54 -13.34074 -40.79740 5751 ft 168 kts 270°
2026-04-14 13:55 -13.34047 -40.80943 5752 ft 168 kts 270°
2026-04-14 13:55 -13.34014 -40.82134 5750 ft 167 kts 270°
2026-04-14 13:55 -13.33982 -40.83327 5747 ft 166 kts 270°
2026-04-14 13:55 -13.33947 -40.84516 5749 ft 167 kts 270°
2026-04-14 13:56 -13.33913 -40.85712 5752 ft 168 kts 270°
2026-04-14 13:56 -13.33879 -40.86903 5753 ft 166 kts 269°
2026-04-14 13:56 -13.33845 -40.88077 5756 ft 168 kts 271°
2026-04-14 13:56 -13.33813 -40.89276 5751 ft 168 kts 269°
2026-04-14 13:57 -13.33783 -40.90475 5755 ft 169 kts 270°
2026-04-14 13:57 -13.33754 -40.91677 5753 ft 168 kts 270°
2026-04-14 13:57 -13.33728 -40.92882 5761 ft 170 kts 270°
2026-04-14 13:57 -13.33705 -40.94098 5755 ft 170 kts 270°
2026-04-14 13:58 -13.33687 -40.95311 5755 ft 170 kts 270°
2026-04-14 13:58 -13.33669 -40.96530 5758 ft 171 kts 269°
2026-04-14 13:58 -13.33647 -40.97752 5762 ft 170 kts 271°
2026-04-14 13:58 -13.33634 -40.98966 5757 ft 170 kts 269°
2026-04-14 13:59 -13.33612 -41.00181 5759 ft 170 kts 270°
2026-04-14 13:59 -13.33373 -41.01347 5718 ft 170 kts 302°
2026-04-14 13:59 -13.32417 -41.01978 5654 ft 166 kts 354°
2026-04-14 13:59 -13.31386 -41.01658 5601 ft 157 kts 43°
2026-04-14 14:00 -13.30648 -41.00858 5598 ft 153 kts 51°
2026-04-14 14:00 -13.29927 -41.00051 5604 ft 153 kts 51°
2026-04-14 14:00 -13.29203 -40.99242 5610 ft 154 kts 51°
2026-04-14 14:00 -13.28476 -40.98431 5611 ft 154 kts 51°
2026-04-14 14:01 -13.27751 -40.97624 5609 ft 154 kts 50°
2026-04-14 14:01 -13.27021 -40.96819 5605 ft 153 kts 51°
2026-04-14 14:01 -13.26294 -40.96021 5608 ft 153 kts 51°
2026-04-14 14:01 -13.25562 -40.95222 5599 ft 153 kts 51°
2026-04-14 14:02 -13.25088 -40.94287 5552 ft 150 kts 88°
2026-04-14 14:02 -13.25529 -40.93358 5509 ft 152 kts 138°
2026-04-14 14:02 -13.26446 -40.92795 5515 ft 155 kts 148°
2026-04-14 14:02 -13.27410 -40.92222 5398 ft 163 kts 148°
2026-04-14 14:03 -13.28388 -40.91625 5276 ft 164 kts 147°
2026-04-14 14:03 -13.29368 -40.91027 5156 ft 162 kts 148°
2026-04-14 14:03 -13.30370 -40.90538 5039 ft 161 kts 154°
2026-04-14 14:03 -13.31396 -40.90081 4919 ft 160 kts 154°
2026-04-14 14:04 -13.32347 -40.89522 4770 ft 158 kts 133°
2026-04-14 14:04 -13.32647 -40.88455 4596 ft 164 kts 85°
2026-04-14 14:04 -13.32218 -40.87424 4445 ft 150 kts 65°
2026-04-14 14:04 -13.31740 -40.86522 4311 ft 132 kts 65°
2026-04-14 14:05 -13.31338 -40.85778 4043 ft 109 kts 65°
2026-04-14 14:05 -13.30974 -40.85129 3773 ft 103 kts 66°
2026-04-14 14:05 -13.30626 -40.84508 3511 ft 100 kts 64°
2026-04-14 14:05 -13.30277 -40.83892 3257 ft 101 kts 58°
2026-04-14 14:06 -13.29589 -40.83714 2936 ft 119 kts 345°
2026-04-14 14:06 -13.28822 -40.84070 2939 ft 120 kts 339°
2026-04-14 14:06 -13.28053 -40.84406 2955 ft 119 kts 339°
2026-04-14 14:06 -13.27298 -40.84751 2959 ft 118 kts 338°
2026-04-14 14:07 -13.26543 -40.85096 2959 ft 117 kts 339°
2026-04-14 14:07 -13.26006 -40.85610 2881 ft 107 kts 284°
2026-04-14 14:07 -13.26137 -40.86332 2845 ft 106 kts 253°
2026-04-14 14:07 -13.26307 -40.87103 2862 ft 115 kts 254°
2026-04-14 14:08 -13.26551 -40.87894 2850 ft 116 kts 233°
2026-04-14 14:08 -13.27248 -40.88150 2796 ft 111 kts 166°
2026-04-14 14:08 -13.27973 -40.87918 2732 ft 110 kts 169°
2026-04-14 14:08 -13.28695 -40.87964 2516 ft 100 kts 182°
2026-04-14 14:09 -13.29374 -40.88079 2226 ft 96 kts 178°
2026-04-14 14:09 -13.30007 -40.88031 1987 ft 92 kts 168°
2026-04-14 14:09 -13.30630 -40.87920 1742 ft 88 kts 165°
2026-04-14 14:09 -13.31152 -40.87819 1735 ft 66 kts 177°
2026-04-14 14:10 -13.31524 -40.87742 1750 ft 36 kts 166°
2026-04-14 14:10 -13.31561 -40.87715 1753 ft 0 kts 23°
2026-04-14 14:10 -13.31549 -40.87699 1753 ft 5 kts 292°
2026-04-14 14:10 -13.31556 -40.87703 1753 ft 0 kts 197°